Time,TemperatureF,DewpointF,PressureIn,WindDirection,WindDirectionDegrees,WindSpeedMPH,WindSpeedGustMPH,Humidity,HourlyPrecipIn,Conditions,Clouds,dailyrainin,SoftwareType,DateUTC
2013-02-20 00:00:00,65.1,58.5,30.03,South,179,0.0,0.0,79,0.00,,---,0.00,VWS V14.01,2013-02-20 05:00:00,
2013-02-20 00:05:00,65.3,58.6,30.03,South,179,0.0,0.0,79,0.00,,---,0.00,VWS V14.01,2013-02-20 05:05:00,
2013-02-20 00:10:00,65.1,58.5,30.03,South,180,0.0,0.0,79,0.00,,---,0.00,VWS V14.01,2013-02-20 05:10:00,
2013-02-20 00:15:00,65.1,58.5,30.03,South,181,0.0,0.0,79,0.00,,---,0.00,VWS V14.01,2013-02-20 05:15:00,
2013-02-20 00:20:00,65.3,59.0,30.03,SSW,197,0.0,0.0,80,0.00,,---,0.00,VWS V14.01,2013-02-20 05:20:00,
2013-02-20 00:25:00,65.3,59.0,30.03,SSW,198,0.0,0.0,80,0.00,,---,0.00,VWS V14.01,2013-02-20 05:25:00,
2013-02-20 00:30:00,65.3,59.3,30.03,SSW,213,0.0,0.0,81,0.00,,---,0.00,VWS V14.01,2013-02-20 05:30:00,
2013-02-20 00:35:00,65.5,59.5,30.03,SW,214,0.0,0.0,81,0.00,,---,0.00,VWS V14.01,2013-02-20 05:35:00,
2013-02-20 00:40:00,65.3,59.3,30.03,SSW,212,0.0,0.0,81,0.00,,---,0.00,VWS V14.01,2013-02-20 05:40:00,
2013-02-20 00:45:00,65.3,59.3,30.03,SSW,212,0.0,0.0,81,0.00,,---,0.00,VWS V14.01,2013-02-20 05:45:00,
2013-02-20 00:50:00,65.3,59.3,30.03,SSW,212,0.0,0.0,81,0.00,,---,0.00,VWS V14.01,2013-02-20 05:50:00,
2013-02-20 00:55:00,65.3,59.3,30.03,SSW,212,0.0,0.0,81,0.00,,---,0.00,VWS V14.01,2013-02-20 05:55:00,
2013-02-20 01:00:00,65.1,59.2,30.03,SSW,212,0.0,0.0,81,0.00,,---,0.00,VWS V14.01,2013-02-20 06:00:00,
2013-02-20 01:05:00,65.3,59.7,30.03,SSW,212,0.0,0.0,82,0.00,,---,0.00,VWS V14.01,2013-02-20 06:05:00,
2013-02-20 01:10:00,65.1,59.2,30.03,SSE,162,0.0,0.0,81,0.00,,---,0.00,VWS V14.01,2013-02-20 06:10:00,
2013-02-20 01:15:00,65.1,59.2,30.03,SSW,196,0.0,0.0,81,0.00,,---,0.00,VWS V14.01,2013-02-20 06:15:00,
2013-02-20 01:20:00,65.1,59.5,30.03,SSW,196,0.0,0.0,82,0.00,,---,0.00,VWS V14.01,2013-02-20 06:20:00,
2013-02-20 01:25:00,65.1,59.5,30.03,SSW,196,0.0,0.0,82,0.00,,---,0.00,VWS V14.01,2013-02-20 06:25:00,
2013-02-20 01:30:00,65.1,59.5,30.03,SSW,196,0.0,0.0,82,0.00,,---,0.00,VWS V14.01,2013-02-20 06:30:00,
2013-02-20 01:35:00,65.1,59.5,30.03,SSW,196,0.0,0.0,82,0.00,,---,0.00,VWS V14.01,2013-02-20 06:35:00,
2013-02-20 01:40:00,65.1,59.5,30.03,SSW,196,0.0,0.0,82,0.00,,---,0.00,VWS V14.01,2013-02-20 06:40:00,
2013-02-20 01:45:00,65.3,60.0,30.03,SW,230,0.0,0.0,83,0.00,,---,0.00,VWS V14.01,2013-02-20 06:45:00,
2013-02-20 01:50:00,65.3,60.0,30.03,SW,230,0.0,0.0,83,0.00,,---,0.00,VWS V14.01,2013-02-20 06:50:00,
2013-02-20 01:55:00,65.5,60.2,30.03,SW,230,0.0,0.0,83,0.00,,---,0.00,VWS V14.01,2013-02-20 06:55:00,
2013-02-20 02:00:00,65.5,60.2,30.03,SW,230,0.0,0.0,83,0.00,,---,0.00,VWS V14.01,2013-02-20 07:00:00,
2013-02-20 02:05:00,65.7,60.7,30.03,SW,230,0.0,0.0,84,0.00,,---,0.00,VWS V14.01,2013-02-20 07:05:00,
2013-02-20 02:10:00,65.7,60.7,30.03,SW,230,0.0,0.0,84,0.00,,---,0.00,VWS V14.01,2013-02-20 07:10:00,
2013-02-20 02:15:00,65.8,60.9,30.03,SW,230,0.0,0.0,84,0.00,,---,0.00,VWS V14.01,2013-02-20 07:15:00,
2013-02-20 02:20:00,65.7,60.7,30.03,SW,230,0.0,0.0,84,0.00,,---,0.00,VWS V14.01,2013-02-20 07:20:00,
2013-02-20 02:25:00,65.7,60.7,30.03,NW,316,2.7,3.6,84,0.00,,---,0.00,VWS V14.01,2013-02-20 07:25:00,
2013-02-20 02:30:00,66.0,62.0,30.03,West,266,4.9,4.9,87,0.00,,---,0.00,VWS V14.01,2013-02-20 07:30:00,
2013-02-20 02:35:00,66.4,62.7,30.03,SSE,165,3.1,5.8,88,0.00,,---,0.00,VWS V14.01,2013-02-20 07:35:00,
2013-02-20 02:40:00,66.6,62.9,30.03,West,277,0.0,0.0,88,0.00,,---,0.00,VWS V14.01,2013-02-20 07:40:00,
2013-02-20 02:45:00,66.7,63.1,30.03,WNW,287,3.6,6.3,88,0.00,,---,0.00,VWS V14.01,2013-02-20 07:45:00,
2013-02-20 02:50:00,66.7,63.1,30.03,WNW,289,2.2,2.2,88,0.00,,---,0.00,VWS V14.01,2013-02-20 07:50:00,
2013-02-20 02:55:00,66.9,63.3,30.03,WNW,287,0.0,0.0,88,0.00,,---,0.00,VWS V14.01,2013-02-20 07:55:00,
2013-02-20 03:00:00,66.9,63.3,30.03,WSW,258,0.0,0.0,88,0.00,,---,0.00,VWS V14.01,2013-02-20 08:00:00,
2013-02-20 03:05:00,66.9,63.3,30.03,WNW,284,3.6,3.6,88,0.00,,---,0.00,VWS V14.01,2013-02-20 08:05:00,
2013-02-20 03:10:00,66.9,63.3,30.03,WNW,285,0.0,0.0,88,0.00,,---,0.00,VWS V14.01,2013-02-20 08:10:00,
2013-02-20 03:15:00,66.7,63.1,30.03,WNW,285,0.0,0.0,88,0.00,,---,0.00,VWS V14.01,2013-02-20 08:15:00,
2013-02-20 03:20:00,66.7,63.4,30.03,WNW,298,0.0,0.0,89,0.00,,---,0.00,VWS V14.01,2013-02-20 08:20:00,
2013-02-20 03:25:00,66.6,63.2,30.03,WNW,298,0.0,0.0,89,0.00,,---,0.00,VWS V14.01,2013-02-20 08:25:00,
2013-02-20 03:30:00,66.6,63.5,30.03,West,278,2.2,2.2,90,0.00,,---,0.00,VWS V14.01,2013-02-20 08:30:00,
2013-02-20 03:35:00,66.7,63.7,30.03,West,275,0.0,0.0,90,0.00,,---,0.00,VWS V14.01,2013-02-20 08:35:00,
2013-02-20 03:40:00,66.7,63.7,30.03,WNW,287,0.0,0.0,90,0.00,,---,0.00,VWS V14.01,2013-02-20 08:40:00,
2013-02-20 03:45:00,66.6,63.5,30.03,WNW,298,2.2,3.1,90,0.00,,---,0.00,VWS V14.01,2013-02-20 08:45:00,
2013-02-20 03:50:00,66.6,63.9,30.03,NNW,335,2.2,2.7,91,0.00,,---,0.00,VWS V14.01,2013-02-20 08:50:00,
2013-02-20 03:55:00,66.4,63.7,30.03,NNW,341,0.0,0.0,91,0.00,,---,0.00,VWS V14.01,2013-02-20 08:55:00,
2013-02-20 04:00:00,66.4,64.0,30.03,SW,234,3.6,3.6,92,0.00,,---,0.00,VWS V14.01,2013-02-20 09:00:00,
2013-02-20 04:05:00,66.2,64.4,30.03,North,353,0.0,0.0,94,0.00,,---,0.00,VWS V14.01,2013-02-20 09:05:00,
2013-02-20 04:10:00,66.2,64.4,30.03,North,353,0.0,0.0,94,0.00,,---,0.00,VWS V14.01,2013-02-20 09:10:00,
2013-02-20 04:15:00,66.2,64.7,30.03,North,2,2.7,2.7,95,0.00,,---,0.00,VWS V14.01,2013-02-20 09:15:00,
2013-02-20 04:20:00,66.2,65.0,30.03,NNW,341,2.7,3.6,96,0.00,,---,0.00,VWS V14.01,2013-02-20 09:20:00,
2013-02-20 04:25:00,66.0,65.2,30.00,NNW,341,0.0,0.0,97,0.00,,---,0.00,VWS V14.01,2013-02-20 09:25:00,
2013-02-20 04:30:00,66.0,65.2,30.00,NNW,341,0.0,0.0,97,0.00,,---,0.00,VWS V14.01,2013-02-20 09:30:00,
2013-02-20 04:35:00,66.0,65.4,30.00,West,281,0.0,0.0,98,0.00,,---,0.00,VWS V14.01,2013-02-20 09:35:00,
2013-02-20 04:40:00,66.0,65.4,30.03,WNW,299,0.0,2.2,98,0.00,,---,0.00,VWS V14.01,2013-02-20 09:40:00,
2013-02-20 04:45:00,66.0,65.2,30.03,NNW,327,0.0,0.0,97,0.00,,---,0.00,VWS V14.01,2013-02-20 09:45:00,
2013-02-20 04:50:00,66.0,64.6,30.03,NNW,331,0.0,0.0,95,0.00,,---,0.00,VWS V14.01,2013-02-20 09:50:00,
2013-02-20 04:55:00,65.8,64.4,30.03,WNW,282,2.2,3.6,95,0.00,,---,0.00,VWS V14.01,2013-02-20 09:55:00,
2013-02-20 05:00:00,65.8,64.1,30.03,WNW,297,2.2,2.2,94,0.00,,---,0.00,VWS V14.01,2013-02-20 10:00:00,
2013-02-20 05:05:00,65.7,63.6,30.03,NW,323,0.0,0.0,93,0.00,,---,0.00,VWS V14.01,2013-02-20 10:05:00,
2013-02-20 05:10:00,65.7,63.6,30.03,NNW,333,0.0,0.0,93,0.00,,---,0.00,VWS V14.01,2013-02-20 10:10:00,
2013-02-20 05:15:00,65.5,63.1,30.03,NNW,329,0.0,0.0,92,0.00,,---,0.00,VWS V14.01,2013-02-20 10:15:00,
2013-02-20 05:20:00,65.5,63.4,30.03,West,266,2.2,2.7,93,0.00,,---,0.00,VWS V14.01,2013-02-20 10:20:00,
2013-02-20 05:25:00,65.5,63.4,30.03,NNW,335,0.0,0.0,93,0.00,,---,0.00,VWS V14.01,2013-02-20 10:25:00,
2013-02-20 05:30:00,65.3,62.9,30.03,NNW,335,0.0,0.0,92,0.00,,---,0.00,VWS V14.01,2013-02-20 10:30:00,
2013-02-20 05:35:00,65.1,62.7,30.03,NNW,336,0.0,2.7,92,0.00,,---,0.00,VWS V14.01,2013-02-20 10:35:00,
2013-02-20 05:40:00,65.1,62.7,30.03,NNW,336,0.0,0.0,92,0.00,,---,0.00,VWS V14.01,2013-02-20 10:40:00,
2013-02-20 05:45:00,65.1,62.7,30.03,NNW,341,2.2,2.7,92,0.00,,---,0.00,VWS V14.01,2013-02-20 10:45:00,
2013-02-20 05:50:00,65.1,62.7,30.03,NNE,18,2.2,2.2,92,0.00,,---,0.00,VWS V14.01,2013-02-20 10:50:00,
2013-02-20 05:55:00,65.1,63.0,30.03,NNW,345,0.0,0.0,93,0.00,,---,0.00,VWS V14.01,2013-02-20 10:55:00,
2013-02-20 06:00:00,64.9,63.2,30.03,NNE,16,3.1,3.6,94,0.00,,---,0.00,VWS V14.01,2013-02-20 11:00:00,
2013-02-20 06:05:00,64.9,64.1,30.03,North,357,0.0,0.0,97,0.00,,---,0.00,VWS V14.01,2013-02-20 11:05:00,
2013-02-20 06:10:00,64.9,64.1,30.06,North,357,0.0,0.0,97,0.00,,---,0.00,VWS V14.01,2013-02-20 11:10:00,
2013-02-20 06:15:00,64.9,64.4,30.06,North,357,0.0,0.0,98,0.00,,---,0.00,VWS V14.01,2013-02-20 11:15:00,
2013-02-20 06:20:00,64.9,64.7,30.06,North,357,0.0,0.0,99,0.00,,---,0.00,VWS V14.01,2013-02-20 11:20:00,
2013-02-20 06:25:00,64.9,64.7,30.06,North,357,0.0,0.0,99,0.00,,---,0.00,VWS V14.01,2013-02-20 11:25:00,
2013-02-20 06:30:00,64.9,64.7,30.06,North,357,0.0,0.0,99,0.00,,---,0.00,VWS V14.01,2013-02-20 11:30:00,
2013-02-20 06:35:00,64.9,64.9,30.06,North,357,0.0,0.0,100,0.00,,---,0.00,VWS V14.01,2013-02-20 11:35:00,
2013-02-20 06:40:00,64.9,64.9,30.06,North,5,0.0,0.0,100,0.00,,---,0.00,VWS V14.01,2013-02-20 11:40:00,
2013-02-20 06:45:00,64.9,64.9,30.06,North,5,0.0,0.0,100,0.00,,---,0.00,VWS V14.01,2013-02-20 11:45:00,
2013-02-20 06:50:00,65.1,65.1,30.06,North,349,0.0,0.0,100,0.00,,---,0.00,VWS V14.01,2013-02-20 11:50:00,
2013-02-20 06:55:00,65.1,65.1,30.06,NNW,345,0.0,0.0,100,0.00,,---,0.00,VWS V14.01,2013-02-20 11:55:00,
2013-02-20 07:00:00,65.1,65.1,30.06,NNW,346,0.0,0.0,100,0.00,,---,0.00,VWS V14.01,2013-02-20 12:00:00,
2013-02-20 07:05:00,65.1,65.1,30.06,NNW,345,0.0,0.0,100,0.00,,---,0.00,VWS V14.01,2013-02-20 12:05:00,
2013-02-20 07:10:00,64.9,64.9,30.06,NNW,345,0.0,0.0,100,0.00,,---,0.00,VWS V14.01,2013-02-20 12:10:00,
2013-02-20 07:15:00,64.9,64.9,30.06,NNW,346,0.0,0.0,100,0.00,,---,0.00,VWS V14.01,2013-02-20 12:15:00,
2013-02-20 07:20:00,64.8,64.8,30.06,NNW,346,0.0,0.0,100,0.00,,---,0.00,VWS V14.01,2013-02-20 12:20:00,
2013-02-20 07:25:00,64.8,64.8,30.06,NNW,346,0.0,0.0,100,0.00,,---,0.00,VWS V14.01,2013-02-20 12:25:00,
2013-02-20 07:30:00,64.8,64.8,30.06,North,1,0.0,0.0,100,0.00,,---,0.00,VWS V14.01,2013-02-20 12:30:00,
2013-02-20 07:35:00,64.8,64.8,30.06,NNW,340,2.2,2.7,100,0.00,,---,0.00,VWS V14.01,2013-02-20 12:35:00,
2013-02-20 07:40:00,64.9,64.9,30.09,North,357,0.0,2.2,100,0.00,,---,0.00,VWS V14.01,2013-02-20 12:40:00,
2013-02-20 07:45:00,64.9,64.9,30.09,North,357,0.0,0.0,100,0.00,,---,0.00,VWS V14.01,2013-02-20 12:45:00,
2013-02-20 07:50:00,65.1,65.1,30.09,North,1,0.0,0.0,100,0.00,,---,0.00,VWS V14.01,2013-02-20 12:50:00,
2013-02-20 07:55:00,65.1,65.1,30.09,North,1,2.7,2.7,100,0.00,,---,0.00,VWS V14.01,2013-02-20 12:55:00,
2013-02-20 08:00:00,65.1,65.1,30.09,North,6,0.0,0.0,100,0.00,,---,0.00,VWS V14.01,2013-02-20 13:00:00,
2013-02-20 08:05:00,65.3,65.3,30.09,NNW,341,0.0,0.0,100,0.00,,---,0.00,VWS V14.01,2013-02-20 13:05:00,
2013-02-20 08:10:00,65.3,65.3,30.09,North,1,0.0,2.2,100,0.00,,---,0.00,VWS V14.01,2013-02-20 13:10:00,
2013-02-20 08:15:00,65.5,65.5,30.09,NNW,348,2.7,3.6,100,0.00,,---,0.00,VWS V14.01,2013-02-20 13:15:00,
2013-02-20 08:20:00,65.3,65.3,30.09,North,357,2.7,4.0,100,0.00,,---,0.00,VWS V14.01,2013-02-20 13:20:00,
2013-02-20 08:25:00,65.1,65.1,30.09,NW,323,2.7,2.7,100,0.00,,---,0.00,VWS V14.01,2013-02-20 13:25:00,
2013-02-20 08:30:00,64.9,64.9,30.09,North,353,3.6,3.6,100,0.00,,---,0.00,VWS V14.01,2013-02-20 13:30:00,
2013-02-20 08:35:00,64.9,64.9,30.09,NNW,342,2.2,2.7,100,0.00,,---,0.00,VWS V14.01,2013-02-20 13:35:00,
2013-02-20 08:40:00,65.1,65.1,30.09,North,10,5.4,5.4,100,0.00,,---,0.00,VWS V14.01,2013-02-20 13:40:00,
2013-02-20 08:45:00,64.9,64.9,30.09,North,357,2.7,4.9,100,0.00,,---,0.00,VWS V14.01,2013-02-20 13:45:00,
2013-02-20 08:50:00,64.8,64.8,30.09,NNE,22,3.1,3.1,100,0.00,,---,0.00,VWS V14.01,2013-02-20 13:50:00,
2013-02-20 08:55:00,64.8,64.8,30.06,NW,324,3.6,3.6,100,0.00,,---,0.00,VWS V14.01,2013-02-20 13:55:00,
2013-02-20 09:00:00,64.9,64.9,30.06,North,4,5.4,5.4,100,0.00,,---,0.00,VWS V14.01,2013-02-20 14:00:00,
2013-02-20 09:05:00,65.1,65.1,30.06,North,357,3.6,3.6,100,0.00,,---,0.00,VWS V14.01,2013-02-20 14:05:00,
2013-02-20 09:10:00,65.1,65.1,30.06,North,357,2.2,3.6,100,0.00,,---,0.00,VWS V14.01,2013-02-20 14:10:00,
2013-02-20 09:15:00,65.1,65.1,30.06,North,353,2.7,2.7,100,0.00,,---,0.00,VWS V14.01,2013-02-20 14:15:00,
2013-02-20 09:20:00,65.1,65.1,30.06,North,9,2.7,3.6,100,0.00,,---,0.00,VWS V14.01,2013-02-20 14:20:00,
2013-02-20 09:25:00,65.3,65.3,30.09,North,1,0.0,0.0,100,0.00,,---,0.00,VWS V14.01,2013-02-20 14:25:00,
2013-02-20 09:30:00,65.5,65.5,30.09,NNE,16,0.0,0.0,100,0.00,,---,0.00,VWS V14.01,2013-02-20 14:30:00,
2013-02-20 09:35:00,65.5,65.5,30.09,NNE,17,2.7,3.6,100,0.00,,---,0.00,VWS V14.01,2013-02-20 14:35:00,
2013-02-20 09:40:00,65.7,65.7,30.09,NNW,345,2.7,2.7,100,0.00,,---,0.00,VWS V14.01,2013-02-20 14:40:00,
2013-02-20 09:45:00,65.5,65.5,30.09,North,9,3.6,3.6,100,0.00,,---,0.00,VWS V14.01,2013-02-20 14:45:00,
2013-02-20 09:50:00,65.7,65.7,30.09,North,1,2.7,2.7,100,0.00,,---,0.00,VWS V14.01,2013-02-20 14:50:00,
2013-02-20 09:55:00,65.8,65.8,30.09,North,353,5.8,5.8,100,0.00,,---,0.00,VWS V14.01,2013-02-20 14:55:00,
2013-02-20 10:00:00,65.7,64.8,30.09,North,353,3.1,3.1,97,0.00,,---,0.00,VWS V14.01,2013-02-20 15:00:00,
2013-02-20 10:05:00,65.8,65.0,30.09,North,2,2.7,2.7,97,0.00,,---,0.00,VWS V14.01,2013-02-20 15:05:00,
2013-02-20 10:10:00,66.0,63.9,30.09,North,6,3.1,3.6,93,0.00,,---,0.00,VWS V14.01,2013-02-20 15:10:00,
2013-02-20 10:15:00,66.0,63.6,30.09,North,9,0.0,4.0,92,0.00,,---,0.00,VWS V14.01,2013-02-20 15:15:00,
2013-02-20 10:20:00,66.2,62.9,30.09,North,357,3.1,3.1,89,0.00,,---,0.00,VWS V14.01,2013-02-20 15:20:00,
2013-02-20 10:25:00,66.4,62.4,30.09,NNW,342,3.6,4.0,87,0.00,,---,0.00,VWS V14.01,2013-02-20 15:25:00,
2013-02-20 10:30:00,66.2,60.5,30.09,NE,39,2.7,2.7,82,0.00,,---,0.00,VWS V14.01,2013-02-20 15:30:00,
2013-02-20 10:35:00,66.4,61.1,30.09,North,7,0.0,0.0,83,0.00,,---,0.00,VWS V14.01,2013-02-20 15:35:00,
2013-02-20 10:40:00,66.6,61.2,30.09,North,353,3.6,3.6,83,0.00,,---,0.00,VWS V14.01,2013-02-20 15:40:00,
2013-02-20 10:45:00,66.7,60.7,30.09,NNW,335,3.1,3.1,81,0.00,,---,0.00,VWS V14.01,2013-02-20 15:45:00,
2013-02-20 10:50:00,66.9,60.6,30.09,ENE,76,5.4,5.4,80,0.00,,---,0.00,VWS V14.01,2013-02-20 15:50:00,
2013-02-20 10:55:00,67.6,62.0,30.09,West,278,3.6,3.6,82,0.00,,---,0.00,VWS V14.01,2013-02-20 15:55:00,
2013-02-20 11:00:00,68.2,61.4,30.09,North,357,4.0,5.4,79,0.00,,---,0.00,VWS V14.01,2013-02-20 16:00:00,
2013-02-20 11:05:00,68.9,59.9,30.09,North,2,3.6,3.6,73,0.00,,---,0.00,VWS V14.01,2013-02-20 16:05:00,
2013-02-20 11:10:00,69.3,59.5,30.09,NNE,23,0.0,2.2,71,0.00,,---,0.00,VWS V14.01,2013-02-20 16:10:00,
2013-02-20 11:15:00,69.6,60.2,30.09,NNW,343,4.0,4.0,72,0.00,,---,0.00,VWS V14.01,2013-02-20 16:15:00,
2013-02-20 11:20:00,70.3,60.9,30.09,NNW,334,2.7,2.7,72,0.00,,---,0.00,VWS V14.01,2013-02-20 16:20:00,
2013-02-20 11:25:00,70.7,59.2,30.09,North,353,3.1,3.1,67,0.00,,---,0.00,VWS V14.01,2013-02-20 16:25:00,
2013-02-20 11:30:00,70.9,58.1,30.09,ENE,64,2.2,2.2,64,0.00,,---,0.00,VWS V14.01,2013-02-20 16:30:00,
2013-02-20 11:35:00,71.2,57.1,30.09,SE,135,4.0,4.0,61,0.00,,---,0.00,VWS V14.01,2013-02-20 16:35:00,
2013-02-20 11:40:00,71.2,56.7,30.06,SE,142,0.0,0.0,60,0.00,,---,0.00,VWS V14.01,2013-02-20 16:40:00,
2013-02-20 11:45:00,71.6,55.6,30.06,North,1,4.0,4.0,57,0.00,,---,0.00,VWS V14.01,2013-02-20 16:45:00,
2013-02-20 11:50:00,71.6,55.6,30.06,NE,55,2.7,3.6,57,0.00,,---,0.00,VWS V14.01,2013-02-20 16:50:00,
2013-02-20 11:55:00,71.4,53.9,30.06,WSW,237,0.0,2.7,54,0.00,,---,0.00,VWS V14.01,2013-02-20 16:55:00,
2013-02-20 12:00:00,71.6,54.1,30.06,East,80,2.2,3.1,54,0.00,,---,0.00,VWS V14.01,2013-02-20 17:00:00,
2013-02-20 12:05:00,71.6,55.1,30.06,North,350,2.7,3.1,56,0.00,,---,0.00,VWS V14.01,2013-02-20 17:05:00,
2013-02-20 12:10:00,72.0,55.9,30.06,NNW,348,0.0,0.0,57,0.00,,---,0.00,VWS V14.01,2013-02-20 17:10:00,
2013-02-20 12:15:00,72.3,53.2,30.06,SSE,147,0.0,0.0,51,0.00,,---,0.00,VWS V14.01,2013-02-20 17:15:00,
2013-02-20 12:20:00,72.7,52.4,30.06,WSW,241,0.0,2.2,49,0.00,,---,0.00,VWS V14.01,2013-02-20 17:20:00,
2013-02-20 12:25:00,73.2,51.2,30.03,North,1,2.2,3.6,46,0.00,,---,0.00,VWS V14.01,2013-02-20 17:25:00,
2013-02-20 12:30:00,73.0,51.1,30.03,North,1,2.7,2.7,46,0.00,,---,0.00,VWS V14.01,2013-02-20 17:30:00,
2013-02-20 12:35:00,73.0,52.8,30.03,West,281,0.0,2.7,49,0.00,,---,0.00,VWS V14.01,2013-02-20 17:35:00,
2013-02-20 12:40:00,73.4,52.5,30.03,NNW,342,3.6,3.6,48,0.00,,---,0.00,VWS V14.01,2013-02-20 17:40:00,
2013-02-20 12:45:00,73.6,49.7,30.03,NNE,28,0.0,0.0,43,0.00,,---,0.00,VWS V14.01,2013-02-20 17:45:00,
2013-02-20 12:50:00,73.8,51.7,30.03,West,260,0.0,0.0,46,0.00,,---,0.00,VWS V14.01,2013-02-20 17:50:00,
2013-02-20 12:55:00,73.9,51.9,30.03,NW,311,3.1,5.4,46,0.00,,---,0.00,VWS V14.01,2013-02-20 17:55:00,
2013-02-20 13:00:00,73.8,51.7,30.03,WNW,290,6.3,6.3,46,0.00,,---,0.00,VWS V14.01,2013-02-20 18:00:00,
2013-02-20 13:05:00,73.9,51.9,30.03,WSW,237,0.0,2.7,46,0.00,,---,0.00,VWS V14.01,2013-02-20 18:05:00,
2013-02-20 13:10:00,74.7,50.7,30.03,WSW,254,2.2,4.0,43,0.00,,---,0.00,VWS V14.01,2013-02-20 18:10:00,
2013-02-20 13:15:00,75.7,51.7,30.03,West,277,2.7,3.6,43,0.00,,---,0.00,VWS V14.01,2013-02-20 18:15:00,
2013-02-20 13:20:00,75.6,51.5,30.03,WSW,258,2.7,4.0,43,0.00,,---,0.00,VWS V14.01,2013-02-20 18:20:00,
2013-02-20 13:24:00,75.4,51.3,30.03,WNW,286,0.0,2.2,43,0.00,,---,0.00,VWS V14.01,2013-02-20 18:24:00,
2013-02-20 13:29:00,75.2,51.2,30.03,West,264,4.9,4.9,43,0.00,,---,0.00,VWS V14.01,2013-02-20 18:29:00,
2013-02-20 13:34:00,75.7,51.7,30.03,WSW,242,3.1,4.9,43,0.00,,---,0.00,VWS V14.01,2013-02-20 18:34:00,
2013-02-20 13:39:00,75.6,51.5,30.00,WNW,302,5.8,5.8,43,0.00,,---,0.00,VWS V14.01,2013-02-20 18:39:00,
2013-02-20 13:44:00,75.4,52.6,30.00,NNW,329,0.0,3.6,45,0.00,,---,0.00,VWS V14.01,2013-02-20 18:44:00,
2013-02-20 13:49:00,75.6,51.5,30.00,West,266,3.1,3.6,43,0.00,,---,0.00,VWS V14.01,2013-02-20 18:49:00,
2013-02-20 13:54:00,75.6,51.5,30.00,West,259,2.7,3.6,43,0.00,,---,0.00,VWS V14.01,2013-02-20 18:54:00,
2013-02-20 13:59:00,74.7,50.7,30.00,WSW,242,2.7,3.6,43,0.00,,---,0.00,VWS V14.01,2013-02-20 18:59:00,
2013-02-20 14:04:00,74.3,50.4,30.00,WSW,258,2.2,4.0,43,0.00,,---,0.00,VWS V14.01,2013-02-20 19:04:00,
2013-02-20 14:09:00,73.8,49.9,30.00,South,191,2.2,3.1,43,0.00,,---,0.00,VWS V14.01,2013-02-20 19:09:00,
2013-02-20 14:14:00,73.6,49.7,30.00,WSW,258,3.6,3.6,43,0.00,,---,0.00,VWS V14.01,2013-02-20 19:14:00,
2013-02-20 14:19:00,73.0,49.9,30.00,WSW,249,3.1,3.1,44,0.00,,---,0.00,VWS V14.01,2013-02-20 19:19:00,
2013-02-20 14:24:00,73.2,51.2,30.00,WSW,244,0.0,0.0,46,0.00,,---,0.00,VWS V14.01,2013-02-20 19:24:00,
2013-02-20 14:29:00,73.4,51.4,30.00,South,191,3.6,3.6,46,0.00,,---,0.00,VWS V14.01,2013-02-20 19:29:00,
2013-02-20 14:34:00,73.6,51.5,30.00,WNW,298,2.7,4.0,46,0.00,,---,0.00,VWS V14.01,2013-02-20 19:34:00,
2013-02-20 14:39:00,73.9,51.9,30.00,West,261,0.0,2.2,46,0.00,,---,0.00,VWS V14.01,2013-02-20 19:39:00,
2013-02-20 14:44:00,74.5,50.5,30.00,SSE,160,3.6,4.0,43,0.00,,---,0.00,VWS V14.01,2013-02-20 19:44:00,
2013-02-20 14:49:00,74.5,50.5,30.00,WSW,256,2.7,5.8,43,0.00,,---,0.00,VWS V14.01,2013-02-20 19:49:00,
2013-02-20 14:54:00,74.5,50.5,30.00,South,181,4.0,4.0,43,0.00,,---,0.00,VWS V14.01,2013-02-20 19:54:00,
2013-02-20 14:59:00,74.5,50.5,30.00,West,278,4.9,4.9,43,0.00,,---,0.00,VWS V14.01,2013-02-20 19:59:00,
2013-02-20 15:04:00,74.3,50.4,30.00,NW,325,3.6,4.0,43,0.00,,---,0.00,VWS V14.01,2013-02-20 20:04:00,
2013-02-20 15:09:00,73.9,50.1,29.97,WNW,296,5.8,5.8,43,0.00,,---,0.00,VWS V14.01,2013-02-20 20:09:00,
2013-02-20 15:14:00,73.4,49.6,29.97,WNW,303,2.7,6.3,43,0.00,,---,0.00,VWS V14.01,2013-02-20 20:14:00,
2013-02-20 15:19:00,73.0,49.9,29.97,West,270,4.0,5.8,44,0.00,,---,0.00,VWS V14.01,2013-02-20 20:19:00,
2013-02-20 15:24:00,72.1,49.0,29.97,WNW,299,4.9,6.3,44,0.00,,---,0.00,VWS V14.01,2013-02-20 20:24:00,
2013-02-20 15:29:00,71.4,48.4,29.97,WNW,283,4.9,8.1,44,0.00,,---,0.00,VWS V14.01,2013-02-20 20:29:00,
2013-02-20 15:34:00,70.9,47.9,29.97,West,263,6.3,9.6,44,0.00,,---,0.00,VWS V14.01,2013-02-20 20:34:00,
2013-02-20 15:39:00,70.0,47.1,30.00,NW,306,3.6,6.3,44,0.00,,---,0.00,VWS V14.01,2013-02-20 20:39:00,
2013-02-20 15:44:00,69.3,47.0,30.00,WSW,255,3.1,3.1,45,0.00,,---,0.00,VWS V14.01,2013-02-20 20:44:00,
2013-02-20 15:49:00,68.9,47.9,30.00,West,266,3.6,4.0,47,0.00,,---,0.00,VWS V14.01,2013-02-20 20:49:00,
2013-02-20 15:54:00,68.5,47.5,30.00,West,269,8.1,8.1,47,0.00,,---,0.00,VWS V14.01,2013-02-20 20:54:00,
2013-02-20 15:59:00,68.4,47.4,30.00,NW,316,4.0,7.6,47,0.00,,---,0.00,VWS V14.01,2013-02-20 20:59:00,
2013-02-20 16:04:00,68.0,47.0,30.00,West,273,3.6,3.6,47,0.00,,---,0.00,VWS V14.01,2013-02-20 21:04:00,
2013-02-20 16:09:00,68.0,47.0,30.00,West,272,4.9,6.3,47,0.00,,---,0.00,VWS V14.01,2013-02-20 21:09:00,
2013-02-20 16:14:00,68.2,48.8,30.00,NW,320,4.9,5.4,50,0.00,,---,0.00,VWS V14.01,2013-02-20 21:14:00,
2013-02-20 16:19:00,68.4,47.4,30.00,WSW,244,8.3,8.3,47,0.00,,---,0.00,VWS V14.01,2013-02-20 21:19:00,
2013-02-20 16:24:00,68.7,47.7,30.00,NNW,348,2.2,3.6,47,0.00,,---,0.00,VWS V14.01,2013-02-20 21:24:00,
2013-02-20 16:29:00,68.7,47.7,30.00,West,262,5.4,5.4,47,0.00,,---,0.00,VWS V14.01,2013-02-20 21:29:00,
2013-02-20 16:34:00,68.4,47.4,30.00,NNW,338,0.0,0.0,47,0.00,,---,0.00,VWS V14.01,2013-02-20 21:34:00,
2013-02-20 16:39:00,68.5,50.2,30.00,West,273,5.8,5.8,52,0.00,,---,0.00,VWS V14.01,2013-02-20 21:39:00,
2013-02-20 16:44:00,68.5,49.2,30.00,West,272,0.0,0.0,50,0.00,,---,0.00,VWS V14.01,2013-02-20 21:44:00,
2013-02-20 16:49:00,68.5,50.2,30.00,WNW,286,4.9,4.9,52,0.00,,---,0.00,VWS V14.01,2013-02-20 21:49:00,
2013-02-20 16:54:00,68.4,49.0,30.03,WSW,258,3.6,3.6,50,0.00,,---,0.00,VWS V14.01,2013-02-20 21:54:00,
2013-02-20 16:59:00,68.2,48.8,30.03,NNW,342,2.7,5.4,50,0.00,,---,0.00,VWS V14.01,2013-02-20 21:59:00,
2013-02-20 17:04:00,68.2,48.8,30.03,WNW,297,4.0,4.0,50,0.00,,---,0.00,VWS V14.01,2013-02-20 22:04:00,
2013-02-20 17:09:00,68.0,48.7,30.00,WNW,292,2.2,4.0,50,0.00,,---,0.00,VWS V14.01,2013-02-20 22:09:00,
2013-02-20 17:14:00,68.0,48.7,30.00,West,273,5.4,5.8,50,0.00,,---,0.00,VWS V14.01,2013-02-20 22:14:00,
2013-02-20 17:19:00,68.0,48.7,30.00,West,259,5.4,5.4,50,0.00,,---,0.00,VWS V14.01,2013-02-20 22:19:00,
2013-02-20 17:24:00,68.0,48.7,30.00,WNW,300,2.2,2.7,50,0.00,,---,0.00,VWS V14.01,2013-02-20 22:24:00,
2013-02-20 17:29:00,67.6,48.4,30.00,NW,320,0.0,0.0,50,0.00,,---,0.00,VWS V14.01,2013-02-20 22:29:00,
2013-02-20 17:34:00,67.1,47.9,30.00,WSW,243,2.2,2.7,50,0.00,,---,0.00,VWS V14.01,2013-02-20 22:34:00,
2013-02-20 17:39:00,66.9,47.7,30.00,West,268,0.0,0.0,50,0.00,,---,0.00,VWS V14.01,2013-02-20 22:39:00,
2013-02-20 17:44:00,66.7,47.5,30.00,West,270,0.0,0.0,50,0.00,,---,0.00,VWS V14.01,2013-02-20 22:44:00,
2013-02-20 17:49:00,66.4,48.2,30.00,West,271,0.0,0.0,52,0.00,,---,0.00,VWS V14.01,2013-02-20 22:49:00,
2013-02-20 17:54:00,66.0,48.4,30.00,West,270,0.0,0.0,53,0.00,,---,0.00,VWS V14.01,2013-02-20 22:54:00,
2013-02-20 17:59:00,65.7,49.1,30.00,West,270,0.0,0.0,55,0.00,,---,0.00,VWS V14.01,2013-02-20 22:59:00,
2013-02-20 18:04:00,65.7,49.1,30.00,West,268,2.2,3.6,55,0.00,,---,0.00,VWS V14.01,2013-02-20 23:04:00,
2013-02-20 18:09:00,65.5,48.9,30.00,West,268,0.0,0.0,55,0.00,,---,0.00,VWS V14.01,2013-02-20 23:09:00,
2013-02-20 18:14:00,65.3,50.2,30.03,West,268,0.0,0.0,58,0.00,,---,0.00,VWS V14.01,2013-02-20 23:14:00,
2013-02-20 18:19:00,65.1,50.0,30.03,West,268,0.0,0.0,58,0.00,,---,0.00,VWS V14.01,2013-02-20 23:19:00,
2013-02-20 18:24:00,64.8,50.1,30.00,West,268,0.0,0.0,59,0.00,,---,0.00,VWS V14.01,2013-02-20 23:24:00,
2013-02-20 18:29:00,64.4,49.8,30.00,West,268,0.0,0.0,59,0.00,,---,0.00,VWS V14.01,2013-02-20 23:29:00,
2013-02-20 18:34:00,64.2,50.1,30.00,West,268,0.0,0.0,60,0.00,,---,0.00,VWS V14.01,2013-02-20 23:34:00,
2013-02-20 18:39:00,64.2,50.1,30.00,West,268,0.0,0.0,60,0.00,,---,0.00,VWS V14.01,2013-02-20 23:39:00,
2013-02-20 18:44:00,64.0,49.9,30.03,West,268,0.0,0.0,60,0.00,,---,0.00,VWS V14.01,2013-02-20 23:44:00,
2013-02-20 18:49:00,64.0,49.9,30.03,West,279,0.0,2.2,60,0.00,,---,0.00,VWS V14.01,2013-02-20 23:49:00,
2013-02-20 18:54:00,64.0,49.4,30.03,West,277,0.0,2.7,59,0.00,,---,0.00,VWS V14.01,2013-02-20 23:54:00,
2013-02-20 18:59:00,63.9,49.3,30.03,West,278,0.0,2.2,59,0.00,,---,0.00,VWS V14.01,2013-02-20 23:59:00,
2013-02-20 19:04:00,63.5,48.9,30.03,West,277,0.0,0.0,59,0.00,,---,0.00,VWS V14.01,2013-02-21 00:04:00,
2013-02-20 19:09:00,63.1,48.6,30.03,West,275,3.6,3.6,59,0.00,,---,0.00,VWS V14.01,2013-02-21 00:09:00,
2013-02-20 19:14:00,63.0,48.4,30.03,West,274,0.0,0.0,59,0.00,,---,0.00,VWS V14.01,2013-02-21 00:14:00,
2013-02-20 19:19:00,62.6,48.5,30.03,West,274,0.0,0.0,60,0.00,,---,0.00,VWS V14.01,2013-02-21 00:19:00,
2013-02-20 19:24:00,62.4,48.8,30.03,West,274,0.0,0.0,61,0.00,,---,0.00,VWS V14.01,2013-02-21 00:24:00,
2013-02-20 19:29:00,62.2,49.1,30.03,West,274,0.0,0.0,62,0.00,,---,0.00,VWS V14.01,2013-02-21 00:29:00,
2013-02-20 19:34:00,62.1,49.3,30.03,WNW,290,0.0,2.7,63,0.00,,---,0.00,VWS V14.01,2013-02-21 00:34:00,
2013-02-20 19:39:00,61.9,49.2,30.03,WNW,295,0.0,2.2,63,0.00,,---,0.00,VWS V14.01,2013-02-21 00:39:00,
2013-02-20 19:44:00,61.9,49.6,30.03,NW,326,2.7,2.7,64,0.00,,---,0.00,VWS V14.01,2013-02-21 00:44:00,
2013-02-20 19:49:00,61.7,49.8,30.03,NNW,331,0.0,0.0,65,0.00,,---,0.00,VWS V14.01,2013-02-21 00:49:00,
2013-02-20 19:54:00,61.7,49.8,30.03,NNW,331,0.0,0.0,65,0.00,,---,0.00,VWS V14.01,2013-02-21 00:54:00,
2013-02-20 19:59:00,61.7,49.8,30.03,NNW,331,0.0,0.0,65,0.00,,---,0.00,VWS V14.01,2013-02-21 00:59:00,
2013-02-20 20:04:00,61.5,50.1,30.03,NNW,331,0.0,0.0,66,0.00,,---,0.00,VWS V14.01,2013-02-21 01:04:00,
2013-02-20 20:09:00,61.5,50.1,30.03,NNW,331,0.0,0.0,66,0.00,,---,0.00,VWS V14.01,2013-02-21 01:09:00,
2013-02-20 20:14:00,61.3,50.3,30.03,NNW,332,0.0,0.0,67,0.00,,---,0.00,VWS V14.01,2013-02-21 01:14:00,
2013-02-20 20:19:00,61.3,50.3,30.03,NNW,331,0.0,0.0,67,0.00,,---,0.00,VWS V14.01,2013-02-21 01:19:00,
2013-02-20 20:24:00,61.3,50.7,30.03,NNW,332,0.0,0.0,68,0.00,,---,0.00,VWS V14.01,2013-02-21 01:24:00,
2013-02-20 20:29:00,61.3,50.7,30.03,NNW,331,0.0,0.0,68,0.00,,---,0.00,VWS V14.01,2013-02-21 01:29:00,
2013-02-20 20:34:00,61.2,50.5,30.03,NNW,331,0.0,0.0,68,0.00,,---,0.00,VWS V14.01,2013-02-21 01:34:00,
2013-02-20 20:39:00,61.2,50.1,30.03,NNW,345,2.7,2.7,67,0.00,,---,0.00,VWS V14.01,2013-02-21 01:39:00,
2013-02-20 20:44:00,61.2,50.1,30.03,NNW,348,2.2,2.2,67,0.00,,---,0.00,VWS V14.01,2013-02-21 01:44:00,
2013-02-20 20:49:00,61.2,50.5,30.03,NNW,334,2.7,2.7,68,0.00,,---,0.00,VWS V14.01,2013-02-21 01:49:00,
2013-02-20 20:54:00,61.2,50.9,30.03,North,1,3.1,3.6,69,0.00,,---,0.00,VWS V14.01,2013-02-21 01:54:00,
2013-02-20 20:59:00,61.2,50.9,30.06,North,1,0.0,3.1,69,0.00,,---,0.00,VWS V14.01,2013-02-21 01:59:00,
2013-02-20 21:04:00,61.3,51.1,30.06,North,353,2.7,2.7,69,0.00,,---,0.00,VWS V14.01,2013-02-21 02:04:00,
2013-02-20 21:09:00,61.3,51.1,30.06,NNW,346,2.2,2.7,69,0.00,,---,0.00,VWS V14.01,2013-02-21 02:09:00,
2013-02-20 21:14:00,61.2,50.9,30.06,North,357,3.1,3.1,69,0.00,,---,0.00,VWS V14.01,2013-02-21 02:14:00,
2013-02-20 21:19:00,61.2,50.9,30.06,NNW,345,0.0,0.0,69,0.00,,---,0.00,VWS V14.01,2013-02-21 02:19:00,
2013-02-20 21:24:00,61.2,51.3,30.06,NNW,348,0.0,0.0,70,0.00,,---,0.00,VWS V14.01,2013-02-21 02:24:00,
2013-02-20 21:29:00,61.2,51.3,30.06,NNE,22,0.0,0.0,70,0.00,,---,0.00,VWS V14.01,2013-02-21 02:29:00,
2013-02-20 21:34:00,61.0,51.1,30.06,North,353,2.7,2.7,70,0.00,,---,0.00,VWS V14.01,2013-02-21 02:34:00,
2013-02-20 21:39:00,61.0,51.1,30.06,NNE,19,2.7,3.1,70,0.00,,---,0.00,VWS V14.01,2013-02-21 02:39:00,
2013-02-20 21:44:00,61.0,51.1,30.06,North,2,4.0,4.0,70,0.00,,---,0.00,VWS V14.01,2013-02-21 02:44:00,
2013-02-20 21:49:00,60.8,51.0,30.06,North,357,2.7,3.1,70,0.00,,---,0.00,VWS V14.01,2013-02-21 02:49:00,
2013-02-20 21:54:00,60.8,51.0,30.06,North,4,0.0,0.0,70,0.00,,---,0.00,VWS V14.01,2013-02-21 02:54:00,
2013-02-20 21:59:00,60.6,51.2,30.06,North,5,0.0,0.0,71,0.00,,---,0.00,VWS V14.01,2013-02-21 02:59:00,
2013-02-20 22:04:00,60.6,51.2,30.06,NNE,14,2.7,2.7,71,0.00,,---,0.00,VWS V14.01,2013-02-21 03:04:00,
2013-02-20 22:09:00,60.4,51.0,30.06,North,4,3.1,3.1,71,0.00,,---,0.00,VWS V14.01,2013-02-21 03:09:00,
2013-02-20 22:14:00,60.4,51.4,30.06,North,3,2.7,2.7,72,0.00,,---,0.00,VWS V14.01,2013-02-21 03:14:00,
2013-02-20 22:19:00,60.3,50.8,30.06,North,357,0.0,2.7,71,0.00,,---,0.00,VWS V14.01,2013-02-21 03:19:00,
2013-02-20 22:24:00,60.3,50.8,30.06,North,1,0.0,2.7,71,0.00,,---,0.00,VWS V14.01,2013-02-21 03:24:00,
2013-02-20 22:29:00,60.3,50.8,30.06,North,353,3.1,3.1,71,0.00,,---,0.00,VWS V14.01,2013-02-21 03:29:00,
2013-02-20 22:34:00,60.1,50.3,30.06,North,5,0.0,2.2,70,0.00,,---,0.00,VWS V14.01,2013-02-21 03:34:00,
2013-02-20 22:39:00,60.1,50.3,30.06,North,4,0.0,0.0,70,0.00,,---,0.00,VWS V14.01,2013-02-21 03:39:00,
2013-02-20 22:44:00,59.9,50.1,30.03,North,6,0.0,0.0,70,0.00,,---,0.00,VWS V14.01,2013-02-21 03:44:00,
2013-02-20 22:49:00,59.9,50.1,30.03,North,6,0.0,0.0,70,0.00,,---,0.00,VWS V14.01,2013-02-21 03:49:00,
2013-02-20 22:54:00,59.9,50.1,30.03,North,6,0.0,0.0,70,0.00,,---,0.00,VWS V14.01,2013-02-21 03:54:00,
2013-02-20 22:59:00,59.7,49.9,30.03,North,6,0.0,0.0,70,0.00,,---,0.00,VWS V14.01,2013-02-21 03:59:00,
2013-02-20 23:04:00,59.7,49.9,30.03,North,6,0.0,0.0,70,0.00,,---,0.00,VWS V14.01,2013-02-21 04:04:00,
2013-02-20 23:09:00,59.5,49.8,30.03,North,6,0.0,0.0,70,0.00,,---,0.00,VWS V14.01,2013-02-21 04:09:00,
2013-02-20 23:14:00,59.5,49.8,30.03,North,6,0.0,0.0,70,0.00,,---,0.00,VWS V14.01,2013-02-21 04:14:00,
2013-02-20 23:19:00,59.5,49.8,30.03,North,6,0.0,0.0,70,0.00,,---,0.00,VWS V14.01,2013-02-21 04:19:00,
2013-02-20 23:24:00,59.5,49.8,30.03,North,6,0.0,0.0,70,0.00,,---,0.00,VWS V14.01,2013-02-21 04:24:00,
2013-02-20 23:29:00,59.5,49.8,30.03,North,6,0.0,0.0,70,0.00,,---,0.00,VWS V14.01,2013-02-21 04:29:00,
2013-02-20 23:34:00,59.5,50.1,30.03,North,6,0.0,0.0,71,0.00,,---,0.00,VWS V14.01,2013-02-21 04:34:00,
2013-02-20 23:39:00,59.4,50.0,30.03,North,6,0.0,0.0,71,0.00,,---,0.00,VWS V14.01,2013-02-21 04:39:00,
2013-02-20 23:44:00,59.2,49.8,30.03,North,6,0.0,0.0,71,0.00,,---,0.00,VWS V14.01,2013-02-21 04:44:00,
2013-02-20 23:49:00,59.0,49.6,30.03,North,6,0.0,0.0,71,0.00,,---,0.00,VWS V14.01,2013-02-21 04:49:00,
2013-02-20 23:54:00,58.8,50.2,30.03,North,6,0.0,0.0,73,0.00,,---,0.00,VWS V14.01,2013-02-21 04:54:00,
2013-02-20 23:59:00,58.5,50.6,30.03,North,6,0.0,0.0,75,0.00,,---,0.00,VWS V14.01,2013-02-21 04:59:00,